Theta_e
324 324 325 327 327 326 326 326 324 323 324 325 326 324 322 322 321 321 324 325 326 325 323 326 329 328 327 327 326 326 326 328 328 327 328 326 324 322 316 311 310 308 308 307 307 308 308 310 311 310 307 307 307 306 306 306 305 306 306 305 305 305 305 306 306 306 306 306 306 306 306 306 306 306 307 307 307 307 307 307 308 308 308 308 308
326 324 324 327 327 326 325 326 325 325 326 326 325 324 323 323 322 324 326 326 326 326 324 324 328 328 328 327 327 328 327 327 328 330 329 327 327 325 319 315 313 312 312 311 309 307 307 307 309 308 306 306 306 306 306 306 305 305 305 305 305 305 305 305 305 305 306 305 306 305 306 306 306 306 306 307 307 307 307 307 307 307 308 308 308
329 326 325 326 327 326 326 327 327 327 326 326 326 325 324 323 322 325 327 326 326 326 325 325 326 328 328 328 328 330 329 329 329 331 330 329 328 326 322 319 318 317 317 317 315 312 310 308 307 307 306 306 305 304 305 305 305 306 306 304 304 305 304 305 304 304 305 305 305 305 305 306 306 306 306 306 306 307 307 307 307 307 307 308 308
330 328 324 325 326 326 328 328 327 328 327 327 327 326 326 323 321 324 326 326 326 326 327 327 327 328 327 328 329 329 328 328 329 330 330 329 328 326 324 322 321 320 320 320 320 318 315 311 310 310 309 308 308 306 306 305 305 307 309 307 304 305 305 304 304 304 304 305 305 305 305 305 306 306 306 306 306 306 306 307 307 307 307 307 308
331 330 325 324 326 327 328 327 323 325 327 327 328 328 327 324 321 322 326 326 326 327 328 328 328 328 327 327 328 329 328 327 327 328 330 329 329 327 325 324 323 322 322 322 323 323 322 318 316 316 314 312 312 312 311 310 310 310 311 311 308 305 305 305 304 304 304 304 304 304 305 305 305 306 306 306 306 306 307 307 307 307 307 307 307
330 331 326 325 326 326 328 326 322 325 328 328 328 328 328 326 323 323 326 326 326 327 328 328 328 327 327 327 327 328 328 327 327 327 328 328 329 327 326 326 325 324 324 323 323 323 325 325 324 324 322 319 319 318 317 317 318 316 313 314 314 307 305 305 304 304 304 304 304 304 304 304 304 305 306 306 306 306 307 307 307 307 307 307 307
330 330 327 325 326 326 327 327 326 326 328 328 328 328 328 328 327 326 325 326 327 327 327 327 326 327 327 327 326 326 326 327 326 326 326 326 327 328 327 327 327 325 324 323 322 322 323 325 326 327 327 326 325 324 323 322 322 321 317 317 319 315 309 305 304 303 303 303 303 303 303 304 304 305 306 306 306 307 307 307 307 308 308 308 307
330 330 326 324 325 326 327 327 327 326 326 327 328 327 328 329 329 328 327 326 326 327 328 327 325 326 327 327 326 326 326 326 326 325 325 324 324 327 328 328 327 326 325 324 322 323 322 323 324 326 327 328 328 327 327 326 325 324 322 319 320 320 316 310 306 304 303 303 303 303 303 303 303 304 305 306 306 306 307 307 308 308 308 308 308
331 329 326 324 326 327 327 327 326 326 325 326 327 327 328 328 329 329 328 327 327 328 328 327 325 327 327 327 327 327 327 326 326 326 325 325 324 325 327 328 327 326 326 325 324 323 323 323 323 324 325 326 327 327 328 328 327 327 327 324 321 319 319 316 310 307 305 304 303 303 303 303 303 304 304 305 306 306 307 307 308 308 309 308 308
330 328 325 326 327 328 327 326 326 326 326 326 325 326 327 328 329 328 327 326 327 328 328 326 326 327 327 327 327 328 327 327 326 326 326 326 325 325 326 327 328 327 327 326 326 325 325 324 323 324 325 325 326 326 327 328 328 328 328 328 325 321 320 317 313 311 310 308 306 304 303 303 303 303 304 305 305 306 306 307 307 308 309 309 309
328 325 325 326 326 328 327 324 323 325 326 325 324 325 326 328 329 328 327 326 327 328 327 327 326 326 326 326 327 327 327 326 325 324 325 324 324 324 324 325 326 326 327 327 327 327 326 326 325 324 325 325 324 324 326 328 328 328 328 328 328 326 323 320 317 317 316 315 314 310 307 305 305 304 305 306 307 307 307 307 306 307 308 309 309
326 324 324 324 324 327 328 325 324 325 326 325 325 326 327 328 328 328 328 327 326 327 327 326 325 325 325 325 326 325 324 323 323 323 324 323 323 322 322 322 323 325 326 326 326 327 327 327 326 325 325 326 325 324 325 327 327 328 328 328 328 327 325 324 323 323 321 320 319 317 315 313 312 311 310 310 309 308 307 307 306 307 308 309 309
323 322 322 322 323 326 328 327 327 326 326 326 325 327 328 328 328 328 328 327 327 327 326 325 325 325 323 324 324 323 322 323 323 323 323 322 321 320 320 320 321 322 323 324 324 326 326 326 326 326 326 327 327 327 326 327 327 328 328 327 327 327 326 325 326 326 326 323 321 320 318 317 316 315 314 312 310 309 309 309 308 307 308 308 309
323 323 324 324 325 327 326 326 326 325 325 325 325 327 327 327 328 327 328 327 327 327 326 326 325 324 323 323 324 324 323 323 324 323 321 320 318 318 318 318 319 319 320 322 323 324 325 325 326 326 326 326 326 326 326 326 327 328 328 327 326 326 326 326 326 327 328 327 326 324 320 318 318 316 315 313 313 313 312 312 311 309 308 308 309
325 325 326 326 326 325 324 324 323 322 323 324 324 325 325 326 326 326 327 327 327 327 326 326 325 323 323 324 325 325 325 324 324 322 320 318 317 317 317 317 318 318 318 320 321 322 323 324 324 324 325 325 324 325 326 327 327 328 328 327 326 326 326 327 327 328 329 329 329 328 324 321 319 318 317 316 316 316 316 315 314 312 310 309 309
325 325 325 324 324 323 322 321 320 320 321 322 321 321 322 324 325 326 326 326 326 326 326 325 325 324 324 324 325 324 324 324 324 322 320 319 318 318 318 317 317 318 318 319 319 320 321 322 322 322 323 322 322 324 326 326 326 327 327 327 327 327 327 327 327 327 328 327 328 329 328 326 322 319 319 319 319 320 319 318 317 314 313 311 310
322 321 320 320 320 320 319 318 318 318 319 320 321 321 322 323 324 325 325 325 325 325 326 326 325 324 324 325 325 323 323 322 323 322 321 320 320 319 319 318 317 317 318 319 319 319 320 320 321 321 321 320 320 322 323 324 325 326 326 326 326 327 327 326 327 327 327 327 327 328 329 329 326 323 321 320 321 322 322 322 321 319 317 315 314
312 312 313 315 318 318 318 318 317 317 318 320 321 321 321 321 321 322 323 324 324 325 325 325 325 324 324 324 323 323 323 322 321 321 320 320 321 320 320 321 320 318 319 320 320 320 320 320 320 320 320 320 320 320 320 321 323 323 324 325 326 326 326 326 326 326 327 327 326 326 327 328 327 326 323 321 321 323 324 324 324 323 321 320 319
309 311 313 316 318 318 317 317 317 318 319 320 320 320 320 320 321 322 323 324 325 325 325 324 324 324 323 322 322 323 322 321 320 319 320 321 320 318 317 317 319 319 320 320 320 320 320 319 320 320 320 321 321 320 320 319 320 321 322 324 325 325 326 326 326 326 327 327 327 326 326 327 326 326 326 325 323 323 324 325 325 325 325 324 323
312 315 317 319 318 317 316 316 319 319 319 319 319 319 320 321 321 322 321 322 322 322 323 323 323 323 322 322 323 322 319 318 318 318 319 318 314 311 310 311 313 315 316 317 317 318 319 318 318 318 319 320 321 320 320 319 319 320 321 322 323 324 324 325 326 326 326 326 326 326 326 326 326 326 327 327 326 324 324 325 325 326 326 326 326
312 315 317 318 317 316 315 317 320 320 319 319 317 318 321 321 321 320 320 320 320 320 321 321 321 322 322 322 321 319 317 317 319 320 318 313 307 306 310 313 313 314 314 315 315 316 317 317 317 317 318 319 320 320 319 319 319 319 320 321 322 322 323 324 325 325 326 326 326 325 325 325 325 326 327 326 325 325 325 325 325 326 326 326 327
311 314 315 315 315 314 313 316 319 318 317 316 315 317 321 320 319 319 319 319 320 320 320 320 320 321 320 319 317 315 314 315 317 319 315 308 305 305 308 313 315 315 316 316 316 316 316 317 318 318 319 319 320 320 319 319 319 318 318 318 321 322 322 323 324 325 325 325 325 325 324 324 323 324 325 325 325 325 325 326 326 326 327 327 328
309 312 314 313 311 310 311 312 314 313 313 312 313 316 319 319 318 318 318 317 319 319 319 319 318 317 316 314 312 309 308 308 309 310 308 305 305 304 306 312 315 315 315 316 316 316 316 317 317 317 318 319 320 320 320 320 320 319 317 317 318 321 323 324 324 324 324 324 324 324 325 325 325 324 325 325 325 324 324 324 325 325 327 327 327
309 312 312 310 308 307 308 308 308 307 307 309 311 313 315 316 315 315 315 315 316 318 317 316 313 310 308 307 306 305 305 305 305 305 304 303 304 303 304 310 315 315 315 315 314 314 315 315 314 314 314 316 317 319 320 321 321 320 319 319 319 320 321 322 323 323 324 324 324 325 325 325 324 324 325 325 326 325 325 325 326 326 327 327 326
309 310 308 307 306 306 306 305 305 305 305 306 307 308 308 309 309 308 308 309 309 310 310 308 307 305 305 305 305 305 304 304 303 303 303 302 302 303 302 307 313 315 315 314 312 311 311 311 311 310 310 311 312 314 316 318 320 321 322 322 322 320 320 321 321 323 324 324 324 323 323 323 323 323 323 324 325 325 325 325 325 325 326 325 325
308 308 306 306 306 305 305 305 305 305 305 305 305 305 305 305 305 305 305 305 305 305 305 305 305 305 305 304 304 304 303 303 303 303 303 303 302 302 302 303 309 314 315 313 310 309 308 307 307 307 307 308 308 309 310 312 314 317 319 321 323 322 322 322 322 323 323 323 323 322 322 322 322 321 322 322 323 323 323 322 322 323 323 324 324
307 306 305 305 306 306 306 306 306 305 306 306 305 305 305 305 305 305 305 305 305 305 305 305 304 304 304 304 304 304 305 305 305 305 305 305 304 304 302 302 305 309 310 309 309 308 306 304 305 305 306 305 305 306 306 306 307 309 311 314 318 321 321 322 322 322 322 322 322 322 322 322 322 322 322 322 322 321 321 321 320 320 320 321 322
306 306 305 306 305 306 306 306 306 306 305 306 305 305 305 304 304 304 304 304 304 304 304 304 304 304 305 305 306 307 308 309 308 309 309 308 308 308 306 305 304 305 306 306 306 306 305 305 305 305 305 304 304 304 304 304 305 305 306 308 310 313 317 319 320 320 320 320 320 321 321 322 322 321 321 322 321 321 320 319 318 317 317 317 318
305 305 305 305 306 305 306 306 306 306 306 305 305 305 305 305 305 305 305 305 305 305 305 305 306 306 307 308 309 310 311 311 311 311 311 310 310 310 309 308 308 307 306 306 306 305 305 305 305 305 305 304 304 303 303 303 304 304 305 305 305 306 308 310 312 314 315 316 317 318 319 320 320 320 320 321 321 321 320 319 317 316 316 315 315
305 306 305 306 306 306 306 306 306 306 305 305 305 306 306 306 306 307 307 308 307 307 307 308 308 308 309 310 310 311 311 311 312 312 312 312 311 311 310 310 310 309 308 307 306 306 305 305 305 305 305 305 304 303 303 303 303 303 304 304 304 305 305 305 306 307 308 309 310 312 314 315 316 317 317 318 319 319 319 318 317 316 316 315 315
306 306 306 306 306 306 306 306 306 306 306 306 306 306 306 307 307 308 309 309 309 310 309 309 309 309 309 310 310 310 310 310 311 311 312 312 312 312 312 312 311 311 310 309 308 307 306 306 305 305 305 305 305 303 303 302 302 303 303 303 304 304 304 305 305 305 306 306 306 307 308 309 310 311 312 313 314 315 315 316 316 316 316 316 316
306 306 306 306 306 306 306 306 306 306 306 306 306 307 307 307 307 308 308 309 308 309 309 310 309 309 309 309 309 309 309 310 310 310 311 312 312 312 312 312 312 312 312 312 310 309 308 307 306 306 306 305 304 304 304 303 302 302 302 302 303 304 304 304 304 305 305 306 306 306 307 307 307 308 308 309 309 310 311 311 312 313 313 314 314
306 307 307 307 307 307 307 307 307 307 307 307 307 307 307 307 307 307 307 307 307 307 308 308 308 308 308 308 308 308 308 308 309 309 310 311 311 312 312 312 312 312 312 312 312 311 310 309 309 308 306 305 304 304 303 303 303 302 301 301 301 302 303 304 305 305 306 306 306 307 308 308 308 308 308 308 308 309 309 309 309 309 310 310 310
308 307 307 308 307 308 308 308 308 308 308 308 308 308 308 308 309 309 308 308 308 307 307 307 307 307 307 307 308 307 307 307 307 308 308 309 310 311 311 312 312 312 312 312 312 311 311 311 311 309 308 307 305 304 303 303 302 302 301 300 300 300 300 301 303 304 305 306 307 307 307 308 308 308 308 308 309 308 309 309 309 310 310 310 310
310 309 308 309 309 310 311 311 311 310 310 310 310 311 312 313 313 313 313 313 312 312 311 310 309 308 308 308 309 309 308 307 307 307 308 308 309 309 310 311 311 311 311 311 311 311 311 311 310 310 309 308 306 304 303 302 301 301 301 300 300 300 299 299 300 301 302 304 305 306 306 307 307 308 308 308 308 308 307 308 308 309 310 310 311
314 313 312 311 311 312 313 314 313 313 313 312 312 313 315 315 316 316 316 316 316 316 315 314 314 313 312 312 312 312 311 310 309 308 308 308 309 309 309 309 310 310 311 311 311 311 311 311 310 310 309 307 306 305 304 302 302 301 301 300 300 300 299 299 299 299 299 300 301 302 302 303 304 305 306 306 307 307 306 306 305 306 308 310 310
315 315 315 314 313 313 314 315 315 315 315 315 314 315 316 316 316 316 316 316 316 316 317 317 316 316 316 316 315 315 315 315 313 311 310 310 310 309 308 309 309 310 310 310 311 311 311 311 310 309 308 307 306 305 305 304 303 302 302 301 301 301 301 300 299 299 300 299 299 299 299 299 300 300 301 302 303 303 303 303 302 303 305 307 309
315 315 316 315 314 314 314 314 315 316 316 316 315 316 316 316 316 316 316 316 315 316 316 317 317 317 317 317 316 316 316 317 316 315 314 313 311 311 310 310 309 309 310 310 311 310 311 310 310 309 309 309 308 306 305 305 304 304 303 303 303 303 302 302 301 300 300 299 299 299 299 299 298 298 298 299 300 300 300 300 301 301 302 305 307
316 315 315 316 315 315 315 314 314 316 316 316 316 316 316 316 316 316 317 316 316 315 316 316 317 316 316 316 316 316 316 316 316 316 316 314 313 313 312 312 311 310 310 310 311 310 310 310 310 310 309 309 308 306 304 304 303 303 304 305 305 305 304 303 302 302 300 300 299 299 299 298 298 298 298 298 298 299 299 299 300 301 302 303 306
316 316 316 316 316 315 315 315 314 315 315 316 316 316 316 316 316 317 317 317 316 314 314 315 315 315 315 315 316 316 316 316 316 316 315 315 314 313 313 313 312 311 311 311 311 310 310 310 310 309 309 309 308 306 305 305 304 304 304 304 304 304 304 304 303 302 301 300 300 300 299 299 299 299 298 298 298 299 299 299 299 300 301 302 304
317 317 316 317 316 315 314 314 314 313 314 315 316 316 317 317 317 317 317 317 316 314 313 314 315 315 316 316 316 316 316 316 315 315 315 314 313 313 313 313 312 311 311 311 311 311 310 310 310 309 309 308 308 307 307 307 306 306 304 303 302 303 303 303 303 302 301 301 301 301 300 299 299 299 299 298 298 298 298 298 299 299 299 300 301
317 317 316 315 315 315 315 313 313 313 314 315 316 317 317 317 317 317 317 317 316 315 314 315 315 315 316 316 316 316 316 316 315 314 313 313 312 312 311 311 311 311 311 310 310 310 310 310 309 309 309 308 308 307 307 306 306 305 304 303 303 302 302 302 303 302 301 301 301 302 301 300 299 299 299 298 298 298 298 298 299 299 299 299 299
317 317 316 315 314 314 314 312 312 314 315 315 316 317 318 318 317 316 316 315 315 315 315 315 315 315 316 317 317 317 317 317 316 315 313 312 311 310 310 309 309 309 310 309 309 309 309 309 309 308 308 307 307 306 306 305 305 304 304 303 302 301 300 300 301 301 300 299 300 301 301 299 298 298 298 298 298 298 298 298 299 299 299 299 299
317 317 316 315 314 313 313 313 314 315 314 315 316 317 317 316 315 315 314 314 314 313 312 312 312 312 312 314 316 317 318 317 317 317 314 311 310 309 308 308 308 309 309 309 309 309 308 308 308 308 307 307 306 305 305 304 303 303 302 302 301 300 299 298 298 298 298 298 297 298 299 299 297 298 298 298 298 298 298 298 298 298 299 299 299
317 316 315 315 315 314 314 315 315 314 315 315 316 317 316 315 314 314 313 311 309 307 306 305 305 306 307 308 310 314 317 318 318 317 315 311 309 309 308 308 308 309 309 308 308 307 307 307 307 307 306 305 304 304 303 303 302 302 301 301 300 299 298 297 297 296 296 296 296 296 297 297 297 297 297 297 297 297 297 298 298 298 298 298 298
316 315 315 315 315 315 315 315 315 315 315 316 316 315 314 312 310 309 307 305 303 302 302 302 303 304 306 308 310 313 315 317 317 316 314 311 309 308 307 308 308 308 307 307 307 306 305 306 307 306 305 304 303 303 302 302 301 301 300 300 300 299 297 296 296 295 295 295 295 295 296 296 296 296 296 297 297 297 297 297 297 297 297 298 298
316 315 315 315 315 315 316 316 316 316 315 315 314 311 309 307 306 305 304 303 303 302 303 302 303 303 304 306 309 312 314 315 315 314 312 309 308 307 307 307 308 308 307 307 306 305 305 305 306 305 305 304 303 302 301 301 301 300 300 299 298 297 296 295 295 295 295 295 295 295 295 296 296 295 296 296 297 297 297 297 296 296 296 297 297
315 315 315 315 315 315 315 315 315 315 314 312 309 307 305 305 304 304 303 303 303 303 302 302 302 302 302 303 305 309 312 314 313 311 308 307 307 307 307 307 308 308 307 306 304 304 304 304 304 304 304 304 302 301 300 300 300 300 299 298 296 295 294 294 295 295 295 295 295 295 295 295 295 295 295 295 296 296 296 296 296 296 296 297 298
314 314 313 314 314 315 314 314 313 312 310 307 306 306 306 306 305 304 304 303 303 303 303 302 302 302 302 302 303 306 310 312 312 309 308 307 307 306 307 307 307 307 305 304 303 303 304 304 304 304 303 302 301 300 300 300 299 298 297 296 295 294 294 294 294 294 295 295 295 295 294 294 294 294 294 294 295 295 295 295 295 295 296 298 300
313 313 313 314 314 314 313 311 309 307 306 306 307 308 308 307 306 305 305 305 305 304 304 304 303 302 302 302 303 305 308 310 310 309 308 307 307 306 307 306 306 304 303 303 303 303 303 303 303 302 301 300 300 299 299 298 297 296 295 294 294 294 294 294 294 294 294 294 295 294 293 293 293 293 293 293 294 294 295 295 295 295 296 298 300
313 313 313 313 312 311 309 307 306 307 308 308 309 309 308 307 307 307 307 307 307 307 306 305 305 304 303 304 304 306 307 308 308 308 308 307 306 306 305 305 303 303 303 303 303 302 302 302 301 301 300 299 298 298 297 296 295 295 294 294 294 294 293 293 293 293 293 293 294 293 292 292 292 292 292 292 293 293 294 294 294 294 294 295 298
Wind_Speed
5 5 4 4 4 3 4 4 4 4 4 3 4 4 5 7 10 12 10 9 8 9 14 18 16 11 9 7 7 7 6 6 6 6 8 7 5 4 5 5 6 7 8 7 6 4 2 2 3 3 3 4 5 5 6 6 5 5 4 4 3 3 3 3 2 1 0 1 1 2 2 3 4 4 5 5 6 7 7 7 8 8 9 9 10
5 5 5 4 4 4 4 3 3 4 4 4 5 5 6 8 12 13 11 10 10 9 13 17 15 11 8 7 6 7 7 7 8 9 9 7 6 5 5 6 7 7 7 7 6 6 5 2 0 1 2 3 5 6 7 7 6 6 5 5 5 5 4 4 4 3 2 2 1 1 1 1 2 3 3 4 5 6 6 6 6 7 7 8 8
7 7 6 5 5 5 5 4 3 4 5 5 6 6 6 8 13 14 12 11 10 10 11 14 14 10 8 7 6 6 5 6 9 10 11 9 7 6 6 6 6 6 6 6 5 5 5 3 2 1 1 2 3 4 6 7 7 7 6 6 6 6 6 5 5 5 4 4 3 2 2 1 1 1 2 3 4 4 5 5 6 6 6 6 6
8 8 8 7 6 5 7 6 4 5 6 6 6 6 6 8 12 13 11 10 10 11 11 11 11 9 7 6 5 4 3 3 5 4 9 12 9 7 7 6 5 5 5 5 4 3 3 2 2 2 2 2 3 3 4 4 5 6 6 6 6 6 7 7 6 6 6 5 5 4 3 3 2 1 1 2 2 3 4 4 5 5 5 5 5
9 9 9 8 8 7 7 6 7 7 7 8 8 7 7 7 10 13 11 10 10 11 11 10 9 7 6 5 4 4 3 3 3 4 5 7 9 9 8 6 5 4 4 4 3 3 3 2 1 2 2 3 3 4 3 3 4 5 5 6 6 5 7 8 8 8 8 7 6 6 5 4 4 3 2 1 2 2 3 3 4 4 4 4 4
10 10 9 8 9 8 6 7 11 11 10 10 9 9 8 8 10 12 12 11 10 11 10 8 6 6 6 6 5 5 5 4 4 5 5 3 5 8 8 7 5 5 4 3 3 3 3 3 3 3 3 4 5 5 5 4 4 5 4 5 6 5 6 8 9 10 10 9 8 7 7 6 5 4 3 2 2 2 2 2 2 3 3 3 3
11 11 9 9 9 8 7 9 12 11 10 10 10 9 9 9 10 11 11 12 12 11 8 5 4 6 8 7 7 7 7 7 6 7 7 6 6 7 9 8 6 6 5 4 2 1 2 2 3 3 4 4 5 6 7 6 5 5 5 4 6 7 7 7 8 10 11 11 10 9 8 7 6 5 5 4 3 2 2 1 1 1 2 2 2
10 11 10 8 8 8 8 9 10 9 8 8 10 10 10 10 10 10 10 9 12 11 8 5 5 7 9 8 7 8 9 9 8 8 9 10 10 9 10 9 7 8 7 6 4 2 1 1 1 2 3 4 5 6 7 8 8 7 7 6 6 7 8 7 7 9 10 11 11 10 9 9 7 7 6 5 4 3 3 2 2 1 0 1 1
9 11 10 9 9 9 9 10 10 9 8 8 9 9 9 10 10 10 10 9 10 10 7 6 6 6 7 7 7 8 9 9 9 9 10 11 12 11 9 9 9 9 9 8 7 5 4 4 4 4 4 4 5 6 7 7 8 9 10 9 8 8 8 8 7 7 9 9 10 10 10 10 9 8 8 7 6 4 4 3 3 2 2 1 1
8 9 10 10 10 9 10 11 11 10 9 9 9 9 9 10 11 10 10 9 8 8 7 7 6 4 4 5 6 8 8 9 10 11 11 11 10 11 10 9 9 9 10 11 9 8 8 7 8 8 7 7 7 7 8 7 7 8 9 10 10 10 9 9 7 6 7 8 9 9 9 9 9 9 8 8 7 6 5 4 4 4 3 2 2
6 8 10 11 10 9 10 11 11 10 10 9 10 11 10 12 13 11 10 8 7 8 8 7 6 4 5 6 6 7 9 9 10 10 10 9 7 8 10 10 10 10 12 11 10 12 12 10 11 11 11 11 10 10 9 8 7 7 8 9 10 10 11 9 7 7 8 8 9 8 7 8 8 8 8 8 7 6 5 5 5 5 5 4 3
5 7 9 10 9 8 9 10 10 10 9 9 10 11 11 13 14 12 10 8 8 9 9 7 5 5 7 8 7 8 9 9 9 7 7 7 6 6 6 8 11 10 9 9 11 13 13 12 12 13 13 14 14 13 12 11 9 8 8 9 9 9 10 10 8 8 8 9 9 8 7 7 7 7 7 7 6 6 5 5 5 5 5 5 4
5 6 8 8 7 7 8 9 9 9 8 8 9 10 13 14 13 11 10 9 10 10 10 9 8 8 9 8 8 8 6 6 5 4 5 5 5 5 4 5 8 9 9 9 10 12 13 13 14 14 15 16 17 16 15 14 12 10 10 10 10 10 10 10 10 10 9 9 9 9 8 7 6 6 6 6 5 5 4 4 4 5 5 6 5
5 6 7 7 7 7 7 7 6 6 6 7 8 10 12 12 11 11 10 11 11 11 11 11 11 9 7 7 7 5 4 4 4 2 1 2 3 3 3 3 5 7 9 9 10 11 12 12 12 13 14 16 18 17 15 16 15 13 12 11 11 12 12 11 12 13 13 12 11 10 8 8 7 6 5 5 4 4 3 3 3 4 4 5 5
4 5 6 7 6 6 4 4 4 4 4 6 7 9 9 9 9 10 9 9 10 11 10 10 10 8 7 7 6 4 2 2 1 1 2 2 2 2 4 4 4 4 6 8 9 10 10 10 10 11 11 11 13 14 14 16 17 16 15 13 13 14 14 14 15 15 15 14 14 13 10 7 8 8 6 4 3 3 3 2 3 3 3 3 4
5 4 3 4 5 4 3 2 2 3 4 6 8 9 9 9 9 8 7 7 7 7 8 9 10 8 7 7 5 1 0 2 3 3 3 2 1 3 5 6 6 4 5 6 7 8 8 9 9 9 8 8 8 10 13 14 15 16 15 15 15 16 16 17 17 17 17 15 14 16 15 11 9 8 7 5 3 3 3 4 4 3 3 2 2
6 4 3 2 2 2 3 3 4 4 5 6 7 8 8 8 7 7 6 6 4 4 5 8 9 8 8 6 3 1 2 3 3 3 2 1 1 3 4 4 5 5 4 5 6 6 6 5 6 5 5 6 6 8 10 12 13 15 15 14 15 16 18 19 19 17 17 16 15 15 17 16 14 11 10 8 6 4 4 5 5 5 4 3 3
5 5 4 3 2 1 1 1 2 3 4 4 4 5 5 5 5 4 4 4 3 3 4 4 5 7 7 4 2 2 2 1 2 2 1 1 2 3 3 2 2 3 4 4 4 5 5 4 4 4 5 5 6 7 8 10 11 12 13 13 13 15 17 19 20 19 19 19 18 17 17 18 18 17 14 11 9 8 6 6 7 7 6 5 4
3 4 5 4 3 2 1 0 0 1 2 1 2 2 2 2 1 1 1 1 3 2 1 2 3 4 5 4 2 2 1 2 1 1 2 4 5 6 5 2 2 3 3 3 4 4 4 5 5 6 6 6 7 8 9 10 11 10 11 12 12 14 15 17 17 19 21 21 20 19 20 20 20 20 20 17 14 12 10 9 9 8 8 7 7
3 5 6 6 4 2 2 1 2 3 3 3 3 3 4 5 5 5 4 4 4 3 3 5 6 6 6 4 3 2 3 3 3 4 6 7 6 8 7 3 2 2 2 3 3 4 4 5 6 6 7 7 8 9 9 10 10 10 11 12 12 12 13 15 15 15 17 19 19 20 21 21 21 22 22 21 18 16 14 13 12 11 10 11 11
2 4 5 6 4 3 3 5 5 6 5 4 4 5 7 8 8 8 7 7 6 5 5 6 8 8 7 6 5 4 4 5 6 6 6 6 6 9 10 7 7 8 7 6 5 4 4 4 4 4 4 5 6 8 9 9 9 8 9 12 12 11 12 13 13 12 12 14 15 17 18 18 20 21 20 20 20 18 17 17 16 15 14 15 15
2 4 5 5 4 3 4 6 7 6 5 3 4 7 9 9 10 10 10 11 10 10 10 10 10 10 10 8 6 4 4 4 4 4 4 5 6 8 9 9 11 12 12 11 10 9 9 7 6 5 4 3 4 5 7 8 8 7 8 9 9 8 10 11 9 8 8 9 10 11 12 13 15 17 19 20 19 18 17 18 18 18 18 18 18
5 6 6 5 5 5 5 6 6 5 4 4 6 9 10 9 9 9 10 11 13 13 14 14 13 11 10 7 5 3 3 4 4 3 4 4 5 7 8 10 12 13 12 12 11 10 10 9 9 9 8 6 5 5 6 6 6 5 6 7 7 7 7 8 7 6 6 7 8 7 7 8 9 10 13 15 15 14 15 17 17 18 19 18 18
7 7 7 7 7 8 8 8 7 7 7 7 8 8 8 7 7 7 8 10 12 12 12 12 10 8 7 6 5 5 5 6 5 5 5 5 5 7 8 9 10 12 12 10 10 9 9 9 10 10 9 8 7 7 6 6 5 4 4 4 6 8 7 7 7 6 5 6 7 6 5 6 7 6 7 8 9 10 13 14 15 17 19 18 18
8 8 8 9 9 9 10 10 11 11 10 10 10 9 9 8 8 8 8 9 10 10 10 9 9 8 8 8 7 7 7 7 7 7 8 7 7 8 8 8 10 10 8 7 7 7 8 8 10 10 10 9 8 8 8 7 7 7 6 4 4 6 7 7 7 6 5 5 6 7 7 7 8 7 6 6 5 6 8 10 11 14 17 17 16
8 9 9 10 10 10 10 11 11 12 12 12 12 12 11 10 10 10 10 10 9 9 9 9 8 9 9 9 9 9 10 10 11 11 11 10 9 9 8 8 9 8 6 6 5 6 8 9 9 10 10 10 10 10 9 9 9 9 8 7 6 6 6 7 7 7 7 7 7 7 7 6 6 6 6 6 5 5 5 5 6 8 11 12 12
9 9 10 10 10 10 10 10 11 11 11 11 11 11 11 10 10 9 10 10 9 9 9 9 9 10 11 11 12 12 13 13 13 13 14 13 13 12 10 8 9 9 7 6 4 6 9 9 9 9 10 11 11 11 12 11 10 10 9 8 7 8 8 8 8 8 9 9 9 8 8 7 6 5 5 5 6 6 6 5 5 7 9 10 11
9 10 10 10 10 10 11 11 10 10 10 10 11 11 11 11 11 10 11 12 11 11 11 11 11 12 13 13 13 14 14 15 15 15 15 15 14 14 12 11 11 11 10 9 8 8 9 9 9 10 10 11 12 12 12 12 11 10 10 9 8 8 9 9 10 10 10 10 10 9 8 8 7 6 6 7 8 9 9 8 9 10 11 12 13
10 10 10 10 10 10 10 11 11 11 11 11 11 12 12 12 13 13 14 14 13 13 13 13 13 13 13 13 13 13 14 14 14 14 14 14 14 14 14 14 13 13 13 12 12 12 11 11 11 11 11 11 12 12 12 12 11 11 10 10 9 9 9 9 10 10 11 11 11 11 11 10 10 9 8 9 10 11 12 12 12 13 14 14 15
10 10 11 11 11 10 10 10 11 11 11 11 12 12 12 13 13 13 14 13 13 13 13 12 12 12 12 12 11 11 12 12 12 12 12 12 12 13 13 14 14 14 14 13 12 12 12 12 13 13 12 12 12 12 12 11 10 10 10 10 9 9 8 8 8 8 9 10 10 11 11 11 12 11 11 11 12 13 14 14 15 15 15 15 15
10 10 10 11 11 11 11 10 10 10 10 10 11 11 11 11 12 12 12 12 11 10 11 10 9 9 9 9 8 8 8 9 9 9 9 9 9 10 11 12 13 13 13 13 13 12 12 13 14 14 14 13 13 12 11 11 10 9 9 9 9 8 8 8 7 7 7 7 8 8 9 9 10 10 11 11 12 13 15 16 17 17 16 16 16
9 9 9 9 10 10 10 10 9 9 9 9 10 10 9 9 9 9 8 9 8 7 8 7 7 6 6 5 5 5 5 5 6 6 7 7 6 7 8 9 10 11 11 13 13 13 13 14 14 15 15 15 14 13 12 11 11 10 9 9 9 8 8 8 8 8 7 7 7 6 6 7 7 8 9 10 11 12 14 16 17 18 18 18 18
10 9 9 8 8 8 7 7 7 7 7 7 8 8 8 7 6 5 5 5 5 5 5 4 4 4 3 3 3 2 2 2 2 3 4 4 4 4 5 6 7 8 10 11 12 12 13 14 15 16 16 15 15 14 14 13 12 12 12 11 9 8 8 8 7 8 8 7 7 7 6 6 6 7 8 9 10 11 12 13 15 16 17 17 18
11 10 10 8 7 7 6 6 6 5 5 5 5 6 6 5 4 3 3 2 2 2 3 2 2 2 2 2 2 1 1 1 1 1 2 2 3 3 4 4 6 7 8 10 11 11 11 12 14 16 16 16 16 16 16 15 15 14 14 13 11 10 9 8 8 8 8 8 8 8 8 8 8 8 9 9 10 11 11 12 13 14 15 15 16
12 11 11 10 9 9 7 7 6 6 6 5 4 4 4 3 2 1 1 1 1 2 2 2 2 2 2 2 2 2 2 2 2 2 2 3 3 4 4 4 5 6 7 9 10 10 11 12 13 14 16 16 17 17 17 17 16 15 14 13 13 13 12 11 10 8 8 9 10 11 11 12 12 12 12 13 13 13 14 14 14 14 15 15 16
16 15 14 13 12 11 10 9 8 8 8 7 5 4 3 2 1 1 1 2 1 0 1 1 2 2 3 4 4 4 4 4 4 3 3 4 4 5 5 5 6 6 7 9 10 11 12 13 13 14 15 16 17 17 17 17 16 16 16 15 14 13 13 13 12 11 10 9 10 11 12 14 15 16 17 17 17 18 18 18 18 17 16 16 17
21 19 18 15 14 13 12 10 9 8 7 6 4 3 4 4 3 2 2 4 5 4 3 2 2 3 4 5 5 6 6 5 5 5 4 5 6 6 6 7 7 7 8 9 10 11 12 12 13 14 15 16 17 18 18 17 18 18 17 16 15 14 13 13 14 14 14 14 13 13 13 14 15 16 18 19 20 21 22 22 22 21 20 18 17
25 24 23 21 18 16 14 12 10 8 7 5 3 4 6 7 7 6 5 6 7 8 7 6 5 5 5 6 7 8 7 7 6 6 6 6 6 7 7 7 8 8 8 9 11 12 13 13 13 14 15 16 17 18 18 19 19 20 20 19 17 16 16 16 17 17 18 18 18 17 16 16 16 17 17 19 20 21 23 24 24 24 23 21 19
29 28 27 25 22 19 16 14 13 11 10 10 9 7 8 9 10 11 11 9 9 10 10 10 9 9 9 9 10 11 10 9 9 8 8 8 8 8 8 8 8 8 8 9 11 13 13 14 14 15 16 17 18 18 19 19 19 20 21 21 20 20 20 21 22 22 21 20 19 19 19 19 19 19 19 19 20 20 21 23 24 24 24 23 22
32 31 30 28 25 21 16 13 15 16 14 13 12 11 11 13 15 16 15 13 12 12 11 11 11 12 12 12 13 13 13 13 12 12 12 11 10 9 9 9 9 9 9 10 11 12 14 15 16 16 17 18 18 18 18 19 20 20 21 22 22 23 23 23 24 25 25 24 23 22 21 22 21 20 21 21 21 21 21 21 23 24 24 24 24
31 31 30 28 25 22 17 14 16 17 13 10 12 13 13 15 17 18 17 16 16 15 13 12 13 13 14 14 14 15 15 16 16 16 16 15 13 11 11 11 11 10 11 11 11 12 14 15 16 17 18 18 19 18 18 19 20 21 22 23 23 24 24 24 24 25 27 27 27 26 26 26 25 24 23 23 23 23 22 22 22 23 24 25 25
30 31 28 25 25 27 27 20 15 14 12 11 14 16 17 18 18 18 18 18 18 17 15 15 15 15 15 15 15 15 15 17 18 20 20 19 17 14 14 14 13 13 13 13 13 13 14 16 18 19 19 19 20 21 20 20 21 21 23 24 26 27 27 26 25 25 26 29 30 28 27 28 29 27 26 25 25 24 24 23 23 23 24 25 25
28 28 26 22 20 25 26 20 16 15 15 16 16 18 19 19 19 19 18 17 16 15 15 16 16 15 15 15 15 15 16 16 18 20 22 22 20 17 16 16 15 14 15 15 15 15 15 16 19 21 22 22 23 23 23 23 23 24 25 27 29 30 31 31 31 28 28 31 32 30 28 28 30 29 28 28 28 27 26 24 23 23 24 24 24
25 23 21 18 17 21 22 21 20 19 17 17 18 19 18 17 17 17 16 15 15 15 15 15 15 16 16 16 16 16 16 16 17 19 22 23 21 19 18 17 16 16 16 17 17 17 16 17 20 23 24 24 24 24 24 25 26 26 28 30 31 32 33 34 35 34 33 34 35 34 30 28 30 31 30 29 29 28 27 26 24 23 23 23 23
23 21 18 16 18 20 21 21 22 20 18 19 19 16 15 15 15 16 16 16 16 15 14 14 13 14 14 15 16 16 15 15 16 16 19 22 22 21 19 18 17 17 17 17 18 17 16 17 21 23 24 25 25 25 26 27 27 28 30 31 33 34 35 36 36 36 36 36 36 36 33 30 31 33 31 29 29 28 27 25 23 22 21 21 21
21 18 15 15 17 18 19 18 18 18 18 17 15 12 12 13 14 14 14 13 11 11 10 10 10 10 10 11 12 13 13 14 13 12 14 19 22 21 20 19 18 18 17 18 19 18 18 19 22 24 26 26 27 27 27 28 29 30 31 33 34 35 37 37 37 37 36 36 35 37 36 33 32 33 32 29 28 27 26 24 22 21 20 20 19
17 16 15 15 16 17 17 16 15 14 13 13 11 10 10 10 9 9 8 8 9 9 9 9 9 9 9 9 9 9 9 10 8 8 11 17 20 20 20 20 19 18 18 19 19 18 19 20 22 25 27 28 28 28 28 28 30 31 33 34 35 36 37 37 37 36 36 35 34 35 36 34 32 32 31 29 27 27 26 25 22 20 19 18 18
15 15 15 16 16 16 16 14 13 12 11 10 10 9 7 6 6 7 7 8 8 9 9 10 10 10 10 9 8 6 6 6 5 6 11 16 18 19 19 19 19 19 19 19 18 19 20 20 22 25 28 28 28 28 28 29 31 32 34 35 35 35 37 38 38 37 36 35 34 32 33 33 30 30 31 29 28 28 27 24 21 18 15 13 13
17 16 16 17 17 16 15 14 12 11 9 8 7 5 4 5 7 8 8 8 9 9 9 9 9 10 10 9 8 6 5 5 5 8 13 16 17 18 18 18 19 19 19 18 19 20 21 22 24 27 28 27 27 27 28 30 31 33 34 35 34 35 36 37 39 38 37 36 32 29 30 30 29 29 31 31 29 28 26 23 19 14 11 9 9
18 17 17 18 17 15 14 12 11 9 7 6 4 4 5 7 9 10 10 11 11 11 11 11 10 10 10 9 8 7 6 5 6 9 13 15 16 17 17 18 18 18 18 19 20 22 22 23 25 27 27 27 27 28 29 30 31 32 33 34 34 34 35 35 37 37 37 35 30 27 28 29 28 28 30 31 31 29 25 21 16 13 11 11 12
17 18 17 16 16 14 13 11 9 7 5 4 4 5 7 9 10 11 11 12 13 13 13 13 12 12 10 9 8 7 7 7 7 9 12 14 15 16 16 17 17 18 19 20 21 22 22 23 25 26 26 27 28 29 30 31 31 31 32 32 32 33 33 33 33 34 35 34 29 27 28 30 29 28 28 29 30 30 26 22 20 18 16 15 17
Wind_Direction
231 241 245 258 259 253 245 226 218 217 208 212 207 199 183 169 169 167 162 163 168 175 183 187 182 181 191 192 198 208 203 194 193 173 146 142 143 138 136 126 111 100 93 87 87 102 134 231 239 236 249 265 278 286 294 300 296 280 274 279 277 264 260 260 258 265 307 16 40 54 65 71 72 73 72 71 71 69 68 65 61 63 64 64 65
240 248 257 265 261 260 255 236 219 215 206 197 193 193 182 173 171 166 165 171 177 182 186 190 190 191 203 209 210 213 213 213 210 188 161 158 164 156 150 144 129 114 103 93 87 87 80 69 98 283 285 284 287 288 289 294 298 286 270 268 273 273 266 260 254 248 246 254 274 314 18 45 60 67 66 65 67 66 66 65 60 57 58 57 59
240 243 249 252 253 257 256 240 216 209 204 195 190 194 186 177 175 172 175 181 183 184 184 190 194 195 202 205 204 206 206 223 224 197 175 175 174 169 162 153 144 129 118 107 99 97 86 75 77 45 346 328 314 302 292 289 292 286 273 263 262 264 264 260 257 253 247 245 251 261 279 302 340 35 54 56 55 58 61 62 60 55 53 52 52
246 244 241 238 236 246 257 247 217 198 196 198 197 202 200 186 182 184 189 191 190 188 187 189 192 198 204 203 204 210 209 233 263 240 196 188 173 169 169 160 156 140 127 116 107 108 102 94 92 53 16 356 341 330 312 302 298 287 276 266 254 251 252 249 249 251 251 248 247 250 255 261 270 289 358 32 37 43 50 54 58 55 51 49 47
245 246 238 234 230 235 250 235 214 206 198 202 205 205 206 198 191 196 201 203 201 196 197 197 196 207 217 217 218 224 235 245 288 302 252 203 176 177 172 162 165 151 133 117 98 92 86 69 54 23 2 359 352 344 333 319 314 303 288 272 252 245 248 245 243 244 247 249 246 248 249 251 256 261 277 324 1 14 29 43 54 59 55 49 45
242 242 236 235 234 233 233 212 208 210 201 201 208 210 208 207 205 208 214 218 217 211 211 211 209 225 231 234 241 238 248 265 270 278 290 279 208 201 184 168 169 162 147 121 88 70 62 44 28 2 345 353 352 344 336 315 301 308 310 286 262 257 260 253 246 242 242 246 246 247 248 249 253 256 260 272 296 326 349 14 34 59 63 55 49
241 240 238 238 240 241 234 214 212 212 201 195 204 216 214 210 212 219 226 231 236 233 232 240 246 254 252 247 253 255 255 261 266 266 272 277 260 228 203 190 177 170 171 161 140 86 58 36 20 358 340 333 331 332 332 322 301 300 316 302 273 267 276 273 260 252 247 245 246 246 249 252 254 255 255 256 263 277 293 316 346 36 63 73 63
236 234 235 234 237 247 238 220 218 214 201 195 201 212 215 212 213 224 233 238 246 246 247 253 245 252 256 255 263 268 265 260 260 265 269 273 271 244 214 208 198 186 188 194 199 201 206 266 305 325 324 307 303 307 317 323 319 316 324 324 299 278 278 283 275 267 261 253 250 249 251 254 257 258 258 257 259 263 266 269 271 275 343 93 86
228 225 228 228 232 243 233 214 213 209 203 205 206 206 210 218 220 225 235 242 247 247 249 253 246 249 253 257 268 268 267 269 270 270 273 274 271 255 230 219 215 205 203 210 215 223 237 253 251 254 267 275 288 289 292 304 308 311 317 324 323 303 286 285 287 285 279 270 261 256 256 256 259 262 262 263 263 262 259 256 252 245 242 225 165
220 221 223 224 230 233 220 207 207 209 208 208 214 210 207 223 229 230 239 246 252 258 261 253 242 250 264 267 269 267 268 273 279 282 282 276 265 258 247 238 236 226 223 227 233 242 249 256 255 247 247 253 264 272 276 279 281 288 293 299 311 319 311 297 300 312 307 301 287 271 264 263 264 267 268 267 267 268 263 253 247 241 238 232 211
209 217 217 220 227 222 211 207 209 219 221 215 218 213 207 223 232 235 242 247 257 266 267 255 239 257 282 277 270 273 281 282 283 287 290 288 283 276 264 260 265 248 235 244 251 251 250 252 256 252 249 253 253 253 257 259 262 270 274 276 282 301 315 311 321 338 333 326 318 303 291 283 276 272 272 272 270 270 266 257 247 239 233 228 220
208 214 211 216 224 218 214 217 219 226 228 221 221 216 213 222 228 234 242 245 247 250 254 246 237 259 270 267 266 272 282 283 281 290 300 309 312 303 283 271 278 272 259 265 264 260 262 263 264 262 257 256 255 255 259 260 257 261 269 274 272 277 295 303 309 321 330 334 329 323 316 306 294 283 279 278 275 270 263 256 246 238 231 224 219
197 201 202 211 220 218 224 230 230 230 224 222 229 227 223 223 225 232 238 240 240 239 242 240 241 256 257 255 262 266 271 275 282 305 313 322 327 321 318 288 283 285 282 279 275 273 276 273 272 271 265 259 258 260 265 269 266 265 268 272 274 270 270 275 274 276 290 310 321 324 319 308 303 299 290 280 270 264 257 252 246 237 230 221 218
166 174 186 200 208 216 225 226 225 226 221 222 233 234 232 232 235 240 241 242 242 239 241 246 250 251 237 233 248 248 244 262 286 322 340 6 2 353 350 311 284 281 279 275 274 276 278 277 280 284 280 273 267 264 266 269 267 267 266 262 262 264 260 260 261 260 262 272 289 307 317 314 304 299 295 282 268 262 257 252 248 238 229 221 217
155 162 178 192 203 208 204 190 191 206 209 217 229 236 239 241 241 242 244 245 245 244 243 246 247 236 216 211 221 231 228 225 222 83 82 75 38 10 5 349 327 301 280 271 268 272 280 285 293 297 296 291 276 266 264 265 262 262 265 265 265 266 266 265 265 265 263 265 273 279 288 306 305 298 290 280 276 281 283 272 259 248 237 223 218
147 150 169 193 211 220 223 221 227 229 219 220 227 233 237 240 239 237 241 239 239 247 246 239 234 226 217 207 200 211 138 144 138 120 102 81 38 3 360 355 350 337 306 291 283 283 286 289 295 299 300 300 283 265 261 260 260 263 265 268 271 270 269 269 267 270 273 274 277 279 279 281 286 290 285 272 270 284 293 293 284 272 262 250 239
195 205 213 210 214 234 253 259 256 247 236 231 227 227 230 235 237 235 236 235 228 242 251 244 238 230 220 201 173 148 162 145 127 123 117 60 355 351 353 350 345 339 329 319 309 306 305 299 301 305 303 304 297 282 273 267 264 264 265 271 274 271 268 269 272 274 276 274 272 274 277 277 277 277 273 264 256 257 268 284 288 285 281 275 270
209 211 205 189 160 142 184 249 248 237 231 233 222 216 221 225 232 232 233 233 221 230 251 243 228 220 211 192 150 150 156 117 114 131 119 34 28 19 13 350 323 324 330 334 327 321 321 323 323 319 309 302 299 297 293 287 275 267 270 277 277 273 272 273 276 277 277 276 270 265 267 271 271 269 265 258 252 251 255 266 275 282 284 280 275
141 138 138 140 133 127 132 246 272 198 196 187 167 166 165 157 145 151 163 172 180 185 179 139 151 174 180 169 150 143 75 7 34 111 116 96 70 56 45 359 305 304 313 320 320 315 313 317 319 316 312 307 302 299 298 295 290 283 283 284 277 273 275 275 276 277 277 277 275 272 272 270 267 264 259 254 250 247 248 258 265 270 277 278 275
113 120 126 137 141 125 122 127 117 119 124 117 116 115 108 107 104 105 109 114 125 124 113 108 106 118 139 146 132 88 50 47 66 91 106 99 74 70 70 44 13 12 351 333 324 317 311 309 309 308 308 307 304 298 294 295 296 291 283 281 277 275 279 283 285 285 285 284 279 278 280 274 269 267 263 259 260 255 249 251 254 257 265 268 268
126 126 131 137 130 98 111 134 133 128 126 120 115 112 108 108 109 109 108 112 117 115 114 112 106 109 116 114 104 92 80 77 85 95 92 68 53 77 92 88 74 72 69 65 58 44 29 13 355 336 319 306 301 294 291 294 300 298 285 278 277 280 288 293 293 292 297 299 292 287 286 276 269 272 271 266 266 264 256 252 250 253 260 266 270
148 133 127 119 106 90 111 133 142 146 151 146 131 128 124 117 115 113 108 108 113 114 114 113 112 113 113 112 111 108 96 84 89 87 55 34 44 78 100 103 92 88 85 81 76 71 65 59 50 42 30 359 333 316 308 306 305 309 310 299 293 298 303 307 307 302 308 315 309 303 298 287 280 280 274 265 262 262 261 259 256 256 263 271 277
132 131 124 113 110 107 114 128 140 149 146 133 129 133 134 128 123 120 115 112 112 114 115 114 114 116 117 119 119 102 86 76 71 52 31 31 53 82 104 113 107 101 95 89 83 76 71 65 58 52 43 33 18 4 351 339 326 318 323 323 329 335 325 324 330 327 323 324 320 313 304 301 303 294 275 265 262 260 260 262 265 268 272 276 279
127 127 122 114 110 109 112 116 118 119 120 120 122 129 135 136 133 130 127 121 117 117 118 115 112 112 112 108 102 90 77 67 60 51 45 46 56 81 109 128 123 113 104 94 83 71 63 56 50 44 36 31 22 13 8 1 353 337 324 327 336 338 329 320 324 321 319 322 323 326 330 339 347 333 293 274 269 264 260 261 268 275 276 275 274
133 127 120 113 110 110 112 113 111 109 111 113 115 118 122 124 123 121 120 118 117 116 115 111 105 103 104 98 92 84 76 71 64 59 56 53 55 74 106 131 132 128 118 96 75 58 50 44 39 32 24 21 15 10 6 358 355 349 346 348 331 321 309 298 303 308 307 313 324 337 353 3 7 357 334 317 299 281 272 270 271 273 272 268 267
137 134 129 123 121 121 119 118 117 114 112 110 110 110 110 111 110 108 108 108 107 106 105 104 101 98 96 92 88 84 77 73 68 63 61 61 64 74 96 117 126 133 127 99 78 51 43 39 32 24 16 12 8 5 4 359 356 352 351 349 334 323 315 307 311 312 307 309 314 321 332 339 344 338 331 329 321 307 294 288 282 278 277 270 263
146 146 141 137 134 133 131 129 128 124 118 114 110 108 106 105 104 103 104 102 100 101 99 98 99 96 95 92 89 86 80 76 73 70 68 70 71 75 85 104 112 116 114 102 83 53 46 40 29 21 16 12 7 2 1 0 359 356 353 348 335 326 322 319 317 312 310 312 312 311 312 310 308 307 303 300 298 295 289 282 279 282 287 283 274
154 154 149 146 143 141 142 140 138 131 123 117 110 105 103 101 102 102 102 101 100 102 102 102 102 99 97 94 89 86 83 80 78 74 72 72 70 72 80 91 100 105 104 92 74 57 47 40 31 23 18 16 11 6 1 357 356 355 350 342 331 317 309 306 304 302 303 304 304 303 300 295 291 288 286 284 285 286 284 280 281 285 287 285 282
157 158 155 152 151 149 148 143 139 133 126 120 112 106 105 103 102 102 100 101 105 107 106 106 106 102 98 94 89 86 83 79 77 74 72 70 67 70 75 79 84 90 90 78 64 53 40 32 30 23 16 15 13 9 2 357 357 357 353 348 341 330 319 310 303 300 297 296 296 294 290 286 283 280 276 274 275 278 280 280 282 286 288 287 283
164 163 161 157 156 155 153 149 141 136 130 123 117 113 112 110 108 107 103 102 106 108 110 110 110 108 103 98 94 87 81 77 74 73 72 69 68 70 72 72 72 76 77 70 58 49 35 26 25 20 13 11 11 8 3 359 358 356 355 355 352 348 340 328 317 310 305 301 299 296 292 287 282 279 276 272 271 273 275 277 278 282 285 286 285
175 172 171 165 163 161 159 158 151 143 137 130 124 119 117 115 113 112 110 108 109 110 112 115 114 113 110 106 101 90 81 74 70 69 69 67 66 65 65 65 63 63 64 60 50 40 30 22 19 15 10 8 6 4 1 1 0 359 357 355 354 350 339 333 331 326 320 315 310 304 299 293 286 282 280 279 278 278 278 279 279 279 279 279 278
186 182 181 174 171 169 163 164 162 152 145 137 131 125 118 116 112 112 115 114 116 116 117 120 118 116 117 115 107 93 83 73 65 62 60 58 56 52 53 54 53 51 49 48 42 32 21 14 10 7 5 2 359 358 360 1 360 359 0 359 356 344 332 329 329 328 327 325 322 316 308 300 293 288 285 284 284 284 284 284 285 284 282 279 277
195 187 184 179 175 172 162 162 163 156 150 139 133 129 124 123 120 119 121 118 119 117 113 114 114 115 113 107 100 90 86 75 59 52 46 44 36 26 29 33 36 38 35 35 35 28 17 7 1 358 356 355 354 355 357 357 357 358 360 359 355 347 338 330 323 320 318 317 316 314 310 306 299 294 291 289 288 289 290 290 291 291 289 287 286
197 190 188 186 179 174 168 167 166 160 155 145 140 136 132 134 131 126 122 107 97 85 74 66 68 85 85 67 51 37 30 304 322 352 359 10 6 349 348 357 7 17 19 18 19 20 13 4 357 351 348 347 348 351 353 354 355 356 353 351 351 352 349 340 328 319 311 305 303 302 300 299 297 294 292 292 291 291 292 291 291 291 290 289 288
206 199 194 191 185 179 176 180 184 180 176 177 171 157 145 145 141 129 117 76 84 73 55 33 16 14 12 14 12 0 348 327 318 323 333 340 335 320 315 321 338 353 2 1 1 3 2 357 352 347 344 343 344 346 349 350 351 349 348 348 349 350 349 345 337 328 316 304 297 294 293 291 290 290 288 288 289 290 291 291 289 287 286 285 284
218 215 207 199 191 186 184 187 190 190 192 197 202 202 185 178 206 272 316 322 307 307 48 35 9 0 355 350 348 343 340 339 332 326 329 330 323 315 310 313 323 333 343 347 349 352 351 348 345 344 343 342 341 340 341 341 342 343 344 345 344 344 345 344 339 333 326 317 306 299 294 290 287 285 284 284 285 286 288 289 289 286 282 280 281
222 224 222 214 203 198 196 197 199 201 203 199 201 233 232 225 239 259 300 315 307 290 280 296 320 326 336 334 327 323 327 335 335 325 317 316 318 318 316 318 321 323 330 337 342 346 346 345 343 342 341 340 337 335 335 334 334 335 336 337 336 334 335 338 338 335 331 327 323 316 309 302 296 290 286 284 284 284 286 288 288 286 282 277 276
231 228 228 227 222 215 211 212 216 219 221 224 250 263 240 235 248 256 267 291 301 293 278 274 282 288 294 300 301 302 306 314 320 316 309 304 307 313 316 317 317 319 325 331 337 341 342 343 342 339 337 336 334 332 331 331 329 328 327 326 325 325 327 330 332 333 333 330 327 324 321 317 312 307 301 294 290 287 287 287 286 285 282 277 273
237 233 231 232 228 224 227 227 225 230 236 244 263 271 258 254 260 265 269 276 288 291 281 271 269 273 277 277 278 283 287 293 298 299 297 293 291 297 305 312 314 316 321 326 333 339 341 342 340 337 335 334 332 330 329 327 325 322 321 319 319 321 324 327 329 329 330 328 324 322 321 319 317 314 310 305 299 295 291 287 284 283 282 279 275
240 239 236 234 228 226 238 242 235 240 246 248 257 265 268 270 271 272 272 273 282 288 279 269 268 271 274 273 269 269 272 278 283 286 285 282 278 280 287 295 300 304 307 313 323 331 336 339 340 339 337 333 329 326 324 323 322 321 322 322 321 321 321 324 326 326 325 324 321 320 319 317 315 313 311 308 303 300 296 291 286 283 281 279 275
243 240 235 233 229 224 235 254 251 243 240 248 264 275 283 284 280 276 272 274 283 286 278 273 273 273 275 274 270 267 267 270 273 276 278 277 273 272 275 281 283 285 289 293 304 318 327 333 337 337 335 331 326 321 320 321 322 323 324 324 323 322 319 319 320 322 323 321 318 317 319 319 317 314 312 309 306 303 300 296 292 289 285 281 277
251 250 246 244 239 233 237 247 242 224 226 254 276 285 291 291 286 279 277 280 284 284 281 281 282 281 280 277 274 270 266 264 266 270 271 272 273 270 266 270 274 277 280 283 290 304 317 327 334 335 333 330 325 320 319 319 321 324 324 325 325 325 323 319 317 319 322 320 316 313 316 320 319 315 313 311 308 305 303 300 297 293 289 286 283
253 257 260 257 243 231 229 227 218 222 243 263 275 285 288 286 283 280 280 282 283 283 285 286 286 286 284 282 279 274 268 263 261 263 265 265 268 266 261 263 267 272 278 280 283 296 310 323 332 332 328 327 324 320 318 319 321 324 325 327 328 327 327 325 323 323 324 322 319 315 315 319 318 313 312 313 310 307 307 305 300 296 293 291 288
247 252 259 250 226 216 221 228 233 240 251 262 274 282 282 278 278 280 283 286 288 290 291 290 289 288 286 284 282 278 274 267 260 259 259 259 259 258 256 257 263 271 277 279 282 293 306 320 328 326 323 321 319 317 317 318 320 323 325 327 327 326 326 326 325 325 325 323 321 318 316 318 316 312 310 312 311 310 309 307 304 300 296 294 292
247 252 249 232 220 221 231 239 240 239 247 261 270 273 269 271 278 282 287 291 295 297 296 294 293 290 286 284 281 278 275 269 262 257 254 250 249 249 248 253 264 273 276 278 283 293 305 316 322 321 317 316 315 314 315 316 318 320 322 323 323 323 323 322 322 324 324 323 322 318 317 318 316 312 311 310 310 311 310 309 308 304 300 297 294
244 243 231 220 223 230 236 235 234 238 247 254 255 256 262 274 282 286 293 300 306 311 312 312 310 303 294 287 281 277 272 266 261 256 249 244 243 244 245 254 266 270 272 279 287 295 305 313 317 317 315 314 312 311 312 313 315 317 317 318 319 319 318 319 319 321 321 321 320 317 315 316 315 312 311 311 309 309 309 308 308 306 303 299 297
229 225 220 219 220 221 223 221 222 226 229 232 241 255 268 280 287 293 303 312 317 322 324 326 327 321 314 303 292 284 277 272 270 262 250 242 239 242 249 257 264 267 274 284 289 294 302 307 312 313 312 310 307 305 306 308 310 311 312 313 315 315 314 314 315 316 317 317 317 315 313 314 314 312 311 311 309 308 308 307 308 307 302 300 300
208 210 211 210 206 206 205 202 201 205 212 227 245 255 265 283 296 301 306 309 311 314 315 318 321 323 324 323 318 311 306 303 293 258 241 237 240 247 255 260 265 272 280 284 286 292 297 300 306 309 306 302 299 299 301 303 305 307 308 309 311 311 311 311 312 313 313 313 314 313 312 312 314 312 310 311 310 308 307 308 310 308 303 304 308
199 202 201 198 195 195 194 194 198 205 215 230 240 251 281 305 314 317 318 318 319 318 318 319 321 323 328 331 332 337 340 327 289 251 241 242 248 253 258 264 272 278 281 280 284 291 294 297 302 302 297 293 293 296 299 301 303 304 305 307 309 309 309 310 311 311 311 311 312 313 311 310 312 312 310 311 310 307 307 309 308 300 291 285 279
197 194 191 190 189 189 191 196 201 205 214 229 245 281 306 314 320 324 325 326 328 328 329 331 332 334 335 335 335 340 341 323 284 259 253 253 255 258 263 271 275 276 276 280 286 290 292 295 297 294 291 291 293 295 297 298 300 302 303 305 307 307 308 309 309 309 309 308 311 313 310 308 310 311 311 311 309 307 308 308 302 290 277 258 244
187 186 186 188 191 193 195 196 197 202 218 240 265 290 303 311 319 322 323 327 330 333 334 335 337 337 335 331 328 326 319 306 284 268 260 257 259 263 268 271 273 274 278 283 287 290 291 293 292 289 289 291 292 294 296 297 299 300 301 303 305 306 307 307 307 307 305 305 310 313 309 306 308 309 311 312 311 309 308 305 299 293 283 265 250